Flag for U.S.A. Weather past 2 weeks in Pomona, California, U.S.A.

Now
56 °F

Mostly cloudy.


Feels Like: 56 °F
Forecast: 54 / 72 °F
Wind: No wind

Location: Chino Airport

Current Time: Jan 29, 2015 at 7:30:08 AM

Latest Report: Jan 29, 2015 at 6:53 AM


Visibility: 10 mi

Pressure: 30.04 "Hg

Humidity: 75%

Dew point: 48 °F

Location of PomonaLocation

Historic Weather in Pomona — Graph

°F

Pomona temperature yesterday

Maximum temperature yesterday: 73 °F (at 11:53 AM)
Minimum temperature yesterday: 49 °F (at 4:53 AM)
Average temperature yesterday: 62 °F

Past Weeks' High & Low Weather Summary

 TemperatureHumidityPressure
High81 °F (Jan 25, 12:53 PM)100% (Jan 20, 12:53 AM)30.27 "Hg (Jan 20, 12:53 AM)
Low38 °F (Jan 16, 5:53 AM)11% (Jan 23, 2:53 PM)29.92 "Hg (Jan 20, 3:53 PM)
Average59 °F55%30.12 "Hg
* Reported Jan 14 5:53 AM — Jan 29 5:53 AM, Pomona, Weather by CustomWeather, © 2014

Note: Actual official high and low records may vary slightly from our data, if they occured in-between our weather recording intervals... More about our weather records

Advertising

Pomona weather history for previous 24 hours

 ConditionsComfort  
Time TempWeatherWind HumidityBarometerVisibility
5:53 AM
Jan 29
54 °FFog.3 mph86%30.03 "Hg4 mi
4:53 AM55 °FClear.No wind77%30.03 "Hg6 mi
3:53 AM56 °FClear.No wind77%30.04 "Hg7 mi
2:53 AM55 °FClear.3 mph80%30.05 "Hg8 mi
1:53 AM57 °FClear.3 mph74%30.06 "Hg8 mi
12:53 AM59 °FClear.No wind67%30.06 "Hg8 mi
11:53 PM
Jan 28
58 °FClear.6 mph70%30.07 "Hg10 mi
10:53 PM63 °FClear.7 mph52%30.09 "Hg10 mi
9:53 PM64 °FClear.8 mph52%30.09 "Hg10 mi
8:53 PM62 °FClear.5 mph58%30.10 "Hg10 mi
7:53 PM64 °FPassing clouds.8 mph54%30.10 "Hg10 mi
6:53 PM66 °FPassing clouds.8 mph50%30.10 "Hg10 mi
5:53 PM65 °FPassing clouds.No wind54%30.09 "Hg10 mi
4:53 PM69 °FOvercast.5 mph47%30.07 "Hg10 mi
3:53 PM69 °FOvercast.9 mph44%30.07 "Hg10 mi
2:53 PM71 °FOvercast.13 mph39%30.07 "Hg10 mi
1:53 PM73 °FOvercast.12 mph37%30.06 "Hg10 mi
12:53 PM73 °FPartly sunny.15 mph34%30.06 "Hg10 mi
11:53 AM73 °FPartly sunny.13 mph34%30.10 "Hg10 mi
10:53 AM70 °FPartly sunny.3 mph53%30.14 "Hg10 mi
9:53 AM65 °FSunny.3 mph56%30.15 "Hg8 mi
8:53 AM60 °FPartly sunny.5 mph65%30.17 "Hg10 mi
7:53 AM54 °FPartly sunny.No wind77%30.17 "Hg10 mi
Weather by CustomWeather, © 2014

See weather overviewHow to use our weather pages